Location: Majestic Skies Ranch
(34.0000°N, 105.9300°W)
Time: 09:24:49
(UTC-06:00)

ISS - Visible Passes

Search period start: 23 October 2017 00:00
Search period end: 02 November 2017 00:00
Orbit: 400 x 408 km, 51.6° (Epoch: 24 October)

Date Brightness Start Highest point End Pass type
(mag) Time Alt. Az. Time Alt. Az. Time Alt. Az.
27 Oct -0.3 06:02:41 10° SE 06:03:02 10° SE 06:03:23 10° ESE visible
28 Oct -3.4 06:43:30 10° SW 06:46:43 65° SE 06:49:56 10° NE visible
29 Oct -1.8 05:51:46 11° S 05:54:25 28° SE 05:57:15 10° ENE visible
30 Oct -0.6 05:02:45 13° ESE 05:02:45 13° ESE 05:03:49 10° E visible
30 Oct -3.4 06:35:28 12° WSW 06:38:20 42° NW 06:41:27 10° NNE visible
31 Oct -3.8 05:46:07 75° ENE 05:46:07 75° ENE 05:49:08 10° NE visible
01 Nov -0.3 04:56:32 10° ENE 04:56:32 10° ENE 04:56:32 10° ENE visible
01 Nov -2.2 06:29:12 17° NW 06:30:03 19° NNW 06:32:27 10° NNE visible
